[[{"header":{"parameterUnit":"m.s-1","parameterCategory":1,"la1":30.2991,"la2":30.254,"lo1":-89.0895,"lo2":-89.0444,"dx":0.0017,"dy":0.0017,"nx":28,"ny":28,"refTime":"2022-12-29T15:00:00:Z","depth":0,"parameterNumber":2,"parameterNumberName":"U-component_of_WINDS"},"data":[0,0,0,0,0,0,0,0,0,0,0,0,0,0,0,0,0,0,0,0,0,0,0,0,0,0,0,0,0,0,0,0,0,0,0,0,0,0,0,0,0,0,0,0,0,0,0,0,0,0,0,0,0,0,0,0,0,0,1.1047,1.1047,0,1.1066,1.1066,1.1066,1.1036,1.1035,1.1034,1.1033,1.1054,1.1055,1.1057,0,0,0,0,0,0,0,0,0,0,0,0,0,1.0986,1.0987,1.1047,1.1047,1.1047,1.1065,1.1066,1.1066,1.1036,1.1035,1.1034,1.1033,1.1053,1.1055,1.1057,0,0,0,0,0,0,0,0,0,0,0,0,0,1.101,1.0988,1.1047,1.1035,1.1034,1.1065,1.1066,1.1066,1.1037,1.1035,1.1033,1.1032,1.1053,1.1055,1.1057,1.1102,0,0,1.1064,1.1065,0,0,0,0,0,0,0,0,1.1008,1.1012,1.1036,1.1035,1.1034,1.1047,1.1052,1.1078,1.1037,1.1035,1.1033,1.1031,1.1053,1.1055,1.1062,1.1103,1.1104,1.1064,1.1066,1.1067,1.1067,0,0,0,0,0,0,0,1.1007,1.1011,1.1054,1.1036,1.1035,1.1028,1.103,1.1057,1.1053,1.1035,1.1033,1.1036,1.1052,1.106,1.1062,1.1104,1.1064,1.1066,1.1068,1.1069,1.1184,1.1185,0,0,0,0,0,0,1.1006,1.101,1.1054,1.1055,1.1017,1.1031,1.1033,1.1044,1.1052,1.1052,1.1037,1.1034,1.1057,1.106,1.1063,1.1116,1.1067,1.1069,1.107,1.1182,1.1184,1.1186,0,0,0,0,0,0,1.1005,1.1011,1.1053,1.1032,1.1036,1.1034,1.1047,1.1046,1.1053,1.1054,1.1053,1.1046,1.1056,1.106,1.1093,1.1117,1.107,1.1072,1.118,1.1183,1.1185,1.1224,0,0,0,0,0,0,1.1004,1.101,1.1027,1.1032,1.1038,1.1082,1.1049,1.1047,1.1057,1.1054,1.1061,1.1061,1.1055,1.1089,1.1095,1.1119,1.1074,1.1178,1.1181,1.1184,1.1221,1.1228,1.1233,0,0,0,0,0,1.1002,1.1038,1.1028,1.1034,1.1059,1.1084,1.1087,1.1078,1.1059,1.1076,1.1076,1.1061,1.1113,1.1093,1.1099,1.1124,1.1176,1.118,1.1184,1.1218,1.1226,1.1233,0,0,0,0,0,0,1.1036,1.1038,1.1028,1.1066,1.1075,1.1078,1.11,1.1087,1.1102,1.1098,1.1087,1.1089,1.1124,1.1127,1.1105,1.1168,1.1142,1.1147,1.1165,1.1173,1.118,1.1179,1.1076,0,0,0,0,0,1.1048,1.1068,1.1068,1.1103,1.1107,1.1103,1.1113,1.1106,1.1114,1.1118,1.1121,1.113,1.1148,1.1161,1.1178,1.122,1.1222,1.1241,1.1247,1.1253,1.1257,1.1281,1.1289,1.1198,1.1198,1.1198,0,0,1.1073,1.1077,1.109,1.111,1.1115,1.1136,1.1106,1.113,1.1145,1.1122,1.1153,1.1155,1.1165,1.1203,1.122,1.1207,1.1283,1.1257,1.1262,1.1264,1.1285,1.1294,1.1302,1.1201,1.1201,1.12,0,0,1.113,1.1135,1.1164,1.117,1.1179,1.1176,1.1183,1.1188,1.1188,1.1219,1.1202,1.1221,1.1253,1.126,1.1268,1.1328,1.1314,1.1334,1.1368,1.1391,1.1398,1.1404,1.1426,1.1434,1.1338,1.1338,1.1338,0,1.1161,1.1191,1.118,1.1205,1.1214,1.1193,1.1223,1.123,1.1244,1.1251,1.1236,1.1275,1.128,1.132,1.1335,1.1342,1.135,1.1333,1.1397,1.1404,1.1409,1.143,1.1438,1.1341,1.134,1.134,1.134,0,1.1229,1.125,1.1272,1.1286,1.1298,1.1325,1.1319,1.1332,1.1323,1.1322,1.1354,1.1359,1.1377,1.1385,1.1377,1.1424,1.1416,1.1399,1.1372,1.1421,1.144,1.1448,1.1344,1.1343,1.1343,1.1342,0,0,1.1308,1.1315,1.1324,1.133,1.1338,1.1355,1.1381,1.1398,1.141,1.142,1.1442,1.1469,1.1454,1.1463,1.1456,1.1476,1.1523,1.1457,1.1457,1.1469,1.1575,1.1588,1.1598,1.1514,1.1515,1.1516,1.1575,0,1.1365,1.141,1.1401,1.1445,1.1465,1.1446,1.1468,1.1476,1.1475,1.1492,1.1491,1.1511,1.1489,1.1494,1.1513,1.1513,1.1544,1.1509,1.1535,1.1536,1.1534,1.1608,1.1621,1.1677,1.1582,1.1583,1.1584,0,1.1438,1.1451,1.1497,1.1502,1.151,1.1531,1.1546,1.1562,1.157,1.1568,1.1579,1.1567,1.1594,1.1566,1.1602,1.1578,1.1588,1.159,1.1592,1.1594,1.1564,1.1613,1.1694,1.1702,1.1596,1.1595,1.1594,0,1.1492,1.1521,1.1552,1.1558,1.1565,1.158,1.1583,1.159,1.1601,1.1614,1.1621,1.1637,1.1646,1.1659,1.1652,1.1632,1.169,1.1661,1.1689,1.169,1.1703,1.1703,1.1787,1.1708,1.1708,1.1708,1.1708,0,1.1557,1.1587,1.1577,1.1596,1.1629,1.1618,1.165,1.1651,1.1657,1.1677,1.1661,1.1679,1.1669,1.1687,1.1682,1.1714,1.1718,1.1717,1.1716,1.1719,1.1719,1.1726,1.1722,1.171,1.171,1.1709,1.1709,0,1.1624,1.1618,1.1651,1.1655,1.1656,1.168,1.1683,1.1701,1.1699,1.1724,1.1729,1.1726,1.1746,1.1741,1.1763,1.176,1.1799,1.1792,1.1796,1.1795,1.1824,1.1821,1.1916,1.1929,1.1841,1.1842,1.1843,0,1.1666,1.1688,1.1694,1.1705,1.171,1.1729,1.174,1.173,1.1742,1.1753,1.1771,1.1789,1.1804,1.1838,1.1837,1.1854,1.1848,1.188,1.1851,1.1854,1.185,1.1849,1.1851,1.1887,1.1888,1.1888,1.1889,0,1.1742,1.1738,1.1754,1.1769,1.1783,1.1794,1.1805,1.1815,1.1806,1.182,1.1841,1.1852,1.1875,1.1894,1.1909,1.1913,1.19,1.1898,1.1906,1.191,1.1912,1.1912,1.1813,1.1896,1.1896,1.1895,1.1895,1.1894,1.1797,1.1816,1.1823,1.1842,1.1848,1.1858,1.1876,1.1876,1.1892,1.191,1.1903,1.1927,1.1934,1.1954,1.196,1.1978,1.1966,1.1977,1.198,1.1983,1.1986,1.1908,1.1981,1.1981,1.198,1.198,1.198,0,1.1873,1.1876,1.1893,1.1908,1.1923,1.1908,1.1919,1.1932,1.1953,1.1962,1.1976,1.2,1.2018,1.2019,1.2037,1.2051,1.2046,1.2056,1.2056,1.2057,1.1996,1.1988,1.2061,1.2061,1.2061,1.2061,1.2061,1.2061,1.1914,1.1945,1.1942,1.1976,1.1979,1.2003,1.201,1.2019,1.2026,1.2053,1.2068,1.2068,1.2074,1.2091,1.2108,1.2107,1.2115,1.2128,1.2126,1.2069,1.2061,1.2053,1.2046,1.2129,1.213,1.2185,1.2185,1.2186]},{"header":{"parameterUnit":"m.s-1","parameterCategory":1,"la1":30.2991,"la2":30.254,"lo1":-89.0895,"lo2":-89.0444,"dx":0.0017,"dy":0.0017,"nx":28,"ny":28,"refTime":"2022-12-29T15:00:00:Z","depth":0,"parameterNumber":3,"parameterNumberName":"V-component_of_WINDS"},"data":[0,0,0,0,0,0,0,0,0,0,0,0,0,0,0,0,0,0,0,0,0,0,0,0,0,0,0,0,0,0,0,0,0,0,0,0,0,0,0,0,0,0,0,0,0,0,0,0,0,0,0,0,0,0,0,0,0,0,4.8598,4.86,0,4.8765,4.8767,4.8769,4.8788,4.8786,4.8784,4.8783,4.8953,4.8959,4.8965,0,0,0,0,0,0,0,0,0,0,0,0,0,4.8296,4.8302,4.8598,4.86,4.8602,4.8765,4.8767,4.8769,4.8788,4.8786,4.8784,4.8782,4.8951,4.8958,4.8965,0,0,0,0,0,0,0,0,0,0,0,0,0,4.8442,4.8304,4.8598,4.8631,4.8636,4.8764,4.8767,4.877,4.8788,4.8786,4.8783,4.8781,4.8948,4.8957,4.8966,4.9072,0,0,4.8994,4.8998,0,0,0,0,0,0,0,0,4.8433,4.8453,4.8624,4.8629,4.8635,4.8753,4.8723,4.8871,4.8789,4.873,4.8783,4.878,4.8888,4.8902,4.8939,4.908,4.9088,4.8995,4.9,4.9004,4.9007,0,0,0,0,0,0,0,4.8423,4.8446,4.8664,4.8627,4.8633,4.8638,4.8656,4.8751,4.8821,4.8735,4.8737,4.8757,4.8891,4.893,4.8943,4.909,4.8995,4.9003,4.9008,4.9012,4.9329,4.9332,0,0,0,0,0,0,4.8407,4.8437,4.8659,4.8669,4.8526,4.8645,4.8665,4.8717,4.882,4.8834,4.8759,4.8757,4.8916,4.8932,4.8949,4.9082,4.9004,4.9013,4.9018,4.9326,4.933,4.9333,0,0,0,0,0,0,4.84,4.8427,4.8652,4.8554,4.8583,4.8653,4.8712,4.8722,4.8762,4.8838,4.885,4.8786,4.8914,4.8936,4.9042,4.9088,4.9017,4.9025,4.9323,4.9327,4.9332,4.9348,0,0,0,0,0,0,4.8392,4.8424,4.8465,4.8554,4.8588,4.8742,4.8714,4.8727,4.8777,4.8777,4.8867,4.888,4.8914,4.9028,4.9051,4.9099,4.9032,4.9319,4.9325,4.933,4.9343,4.9352,4.9359,0,0,0,0,0,4.8381,4.8462,4.8467,4.8494,4.8641,4.8745,4.8764,4.8803,4.8781,4.8823,4.8872,4.8877,4.9079,4.9039,4.9065,4.9117,4.9316,4.9323,4.933,4.934,4.935,4.9359,0,0,0,0,0,0,4.8376,4.8475,4.8481,4.8594,4.8661,4.8748,4.8802,4.8812,4.8887,4.8883,4.8927,4.8947,4.9052,4.9094,4.9048,4.9226,4.9196,4.9208,4.9194,4.9205,4.9213,4.9201,4.904,0,0,0,0,0,4.8388,4.8465,4.8547,4.8638,4.8672,4.8731,4.8778,4.8802,4.8873,4.8901,4.8958,4.9027,4.9106,4.9158,4.9235,4.9349,4.937,4.9397,4.9405,4.9411,4.9422,4.9487,4.9501,4.9355,4.9355,4.9355,0,0,4.8414,4.8477,4.8523,4.8639,4.8694,4.8773,4.8755,4.8838,4.8898,4.8914,4.9018,4.9062,4.9142,4.9253,4.9305,4.9292,4.9467,4.942,4.9424,4.9432,4.9496,4.951,4.9522,4.936,4.9359,4.9358,0,0,4.8502,4.8557,4.864,4.8696,4.8779,4.8818,4.8838,4.8924,4.8954,4.906,4.9074,4.9145,4.928,4.9337,4.9383,4.9494,4.9501,4.9517,4.956,4.9624,4.9635,4.9646,4.9687,4.9701,4.9527,4.9527,4.9527,0,4.8524,4.8643,4.8682,4.8766,4.8817,4.8836,4.8921,4.8973,4.9077,4.9112,4.9096,4.9267,4.9322,4.9448,4.9475,4.9511,4.9536,4.9508,4.963,4.9641,4.9652,4.9692,4.9707,4.9529,4.9529,4.9528,4.9528,0,4.8667,4.8749,4.8806,4.8908,4.8965,4.9049,4.9101,4.9154,4.9173,4.9214,4.9322,4.9388,4.948,4.9511,4.9529,4.964,4.9629,4.9621,4.9592,4.9666,4.9705,4.972,4.9531,4.953,4.953,4.953,0,0,4.8757,4.8879,4.8899,4.8946,4.904,4.9105,4.919,4.928,4.9326,4.9397,4.947,4.9585,4.9578,4.9631,4.9656,4.9711,4.9797,4.9697,4.9699,4.9715,4.9925,4.9932,4.9949,4.9802,4.9805,4.9807,4.9919,0,4.8857,4.901,4.9048,4.9179,4.9256,4.9275,4.935,4.9415,4.9456,4.9528,4.9572,4.9653,4.9637,4.967,4.9725,4.9775,4.984,4.9767,4.9872,4.9875,4.9854,4.9969,4.9977,5.0079,4.9934,4.9936,4.9938,0,4.8994,4.907,4.9209,4.9294,4.9328,4.9394,4.9481,4.9549,4.9624,4.9649,4.9709,4.9729,4.9819,4.9784,4.9909,4.9859,4.9904,4.9935,4.994,4.9953,4.9913,4.9987,5.0112,5.0128,4.9962,4.996,4.9958,0,4.9049,4.9185,4.9286,4.9325,4.9426,4.9473,4.9517,4.959,4.9642,4.9717,4.9752,4.9836,4.9883,4.9948,4.9991,4.9961,5.0114,5.0082,5.0139,5.0138,5.0171,5.0169,5.0308,5.0197,5.0196,5.0196,5.0196,0,4.9158,4.9243,4.9312,4.9375,4.9471,4.9513,4.9607,4.9651,4.9716,4.9788,4.9808,4.9875,4.9926,5.0001,5.0034,5.0134,5.0154,5.0178,5.0187,5.0178,5.0175,5.021,5.0204,5.02,5.0199,5.0198,5.0198,0,4.9236,4.9286,4.9398,4.9485,4.9509,4.9576,4.965,4.9712,4.9752,4.9843,4.9867,4.9931,5.002,5.0068,5.0179,5.0201,5.0314,5.0317,5.0289,5.0293,5.0348,5.0343,5.0515,5.0541,5.0411,5.0412,5.0413,0,4.9304,4.937,4.9464,4.9514,4.9559,4.9639,4.9693,4.9737,4.9792,4.9883,4.9934,5.0024,5.0098,5.0239,5.0296,5.0381,5.0388,5.0442,5.0401,5.039,5.0391,5.0388,5.0396,5.045,5.0451,5.0452,5.0453,0,4.9419,4.9441,4.9518,4.9604,4.9668,4.9737,4.9806,4.9846,4.9901,4.9962,5.0054,5.0111,5.0225,5.0314,5.0404,5.045,5.0462,5.0465,5.0484,5.0476,5.0458,5.0471,5.0311,5.0462,5.0461,5.046,5.046,5.0459,4.9496,4.9556,4.9632,4.9718,4.9774,4.9839,4.9902,4.9951,5.0027,5.0124,5.0145,5.0241,5.0316,5.0438,5.0486,5.0563,5.0552,5.0578,5.0585,5.0591,5.0594,5.0444,5.0579,5.0578,5.0578,5.0578,5.0578,0,4.9614,4.9664,4.9742,4.9839,4.9906,4.9911,4.9988,5.0044,5.0129,5.0198,5.0271,5.0376,5.0463,5.0527,5.0616,5.0665,5.0673,5.0687,5.0685,5.0696,5.0597,5.0574,5.0679,5.0679,5.0679,5.0679,5.0679,5.0679,4.9684,4.9787,4.9817,4.9949,4.9998,5.0094,5.0137,5.0197,5.0252,5.0369,5.0442,5.0483,5.055,5.0644,5.0725,5.0741,5.0774,5.0788,5.0806,5.0713,5.0702,5.0692,5.067,5.0794,5.0795,5.0898,5.0899,5.09]}]]